Regional Weather Roundup
Issued by NWS Charleston, SC

Current Version | Previous Version | Text Only | Print | Product List | Glossary Off
Versions: 1 2 3 4 5 6 7 8 9 10 11 12 13 14 15 16 17 18 19 20 21 22 23 24 25 26 27 28 29 30 31 32 33 34 35 36 37 38 39 40 41 42 43 44 45 46 47 48 49 50

728
ASUS42 KCHS 080112
RWRCHS

REGIONAL WEATHER ROUNDUP
NATIONAL WEATHER SERVICE CHARLESTON SC
800 PM EST WED DEC 07 2016

NOTE: "FAIR" INDICATES FEW OR NO CLOUDS BELOW 12,000 FEET WITH NO
SIGNIFICANT WEATHER AND/OR OBSTRUCTIONS TO VISIBILITY.

NOT ALL STATIONS ARE QUALITY CONTROLLED. USE DATA WITH CAUTION...
ESPECIALLY DEWPOINT OBSERVATIONS.

SCZ027-030-031-034>040-042>050-080200-
...SOUTHEAST SOUTH CAROLINA...

CITY           SKY/WX    TMP DP  RH WIND       PRES   REMARKS
N CHARLESTON   PTCLDY    52  49  89 NE3       30.09R
WATERFRONT PRK   N/A     55  53  93 VRB2      30.09R
MOUNT PLEASANT NOT AVBL
JOHNS ISLAND   MOCLDY    54  52  94 CALM      30.09S
PINOPOLIS        N/A     54  52  94 W7        30.01R
MONCKS CORNER  CLOUDY    50  48  93 CALM      30.10R FOG
SUMMERVILLE    CLOUDY    54  54 100 CALM      30.10S
BEAUFORT MCAS  MOCLDY    53  52  96 CALM      30.09R
BEAUFORT ARPT  FAIR      52  52 100 CALM      30.08S FOG
HILTON HEAD IS NOT AVBL
WALTERBORO     MOCLDY    54 N/A N/A CALM      30.09S
ALLENDALE      CLOUDY    55  54  94 CALM      30.08R

...SOUTHERN MIDLANDS AND PEE DEE...

CITY           SKY/WX    TMP DP  RH WIND       PRES   REMARKS
GEORGETOWN     FAIR      45  45 100 CALM      30.10S
KINGSTREE      CLOUDY    52  48  87 SW5       30.09S
ORANGEBURG     CLOUDY    53  51  93 CALM      30.09S
BARNWELL       NOT AVBL
AIKEN          NOT AVBL
MANNING        CLOUDY    52  48  87 CALM      30.09S
COLUMBIA       CLOUDY    54  50  86 CALM      30.08S
SUMTER         MOCLDY    53  49  87 SW5       30.06S
FLORENCE       CLOUDY    57  51  80 SW7       30.07S
MYRTLE BEACH   CLEAR     52  41  66 S7        30.11
N MYRTLE BEACH CLEAR     48  48 100 CALM      30.08R

$$

GAZ063-065-086>088-099>101-113>116-118-119-134>141-150-080200-
...SOUTHEAST GEORGIA...

CITY           SKY/WX    TMP DP  RH WIND       PRES   REMARKS
SAVANNAH ARPT  MOCLDY    57  54  89 SE3       30.09R
HUNTER AAF     PTCLDY    55  55 100 SE1       30.06R
FORT STEWART   CLOUDY    58  56  91 CALM      30.06R
STATESBORO     CLOUDY    55  55  99 CALM      30.08S
SYLVANIA       MOCLDY   N/A N/A N/A CALM      30.09S
CLAXTON        CLOUDY    60  58  92 SW3       30.08S

...CSRA...CENTRAL AND FAR SOUTHEAST GEORGIA...

CITY           SKY/WX    TMP DP  RH WIND       PRES   REMARKS
THOMSON          N/A     47  47 100 CALM      30.12S VSB 3/4
AUGUSTA-BUSH   CLOUDY    54  51  90 CALM      30.07S
AUGUSTA-DANIEL CLOUDY    54  50  86 CALM      30.08S
SWAINSBORO     FAIR      55  52  88 W5        30.09R
VIDALIA        CLEAR     57  54  88 W5        30.09S
EASTMAN        CLOUDY    56  45  65 CALM      30.13R
HAZLEHURST     CLOUDY    58  55  89 CALM      30.09S
ALMA           PTCLDY    56  53  90 W6        30.09R
WAYCROSS       CLEAR     58  57  96 NW3       30.09S
JESUP          FAIR      59  59 100 NW3       30.08S
BAXLEY         FAIR      55  55 100 CALM      30.09S
BRUNSWICK      FOG       55  55 100 CALM      30.08S VSB 1/4
SAINT SIMONS   CLEAR     61  57  87 SE3       30.07S

$$

SCZ027-028-034-036>038-045-046-048>050-GAZ119-141-080200-
...LAKE AND SUPPLEMENTAL COASTAL OBSERVATIONS...

STATION/POSITION TIME  TEMP    WIND        PRES    WAVE   SWELL
                       AIR SEA DIR/SP/G            HT/PER HT/PER/DIR
                 (UTC) (F)     (DEG/KT/KT) (MB)    (FT/S) (FT/S/D)
WINYAH BAY       2345   53     290/  2     1018.0
LAKE MURRAY      0020   53     260/  4/  6 1018.3
ACE BASIN NERRS  2345   54        CALM     1018.0
FORT PULASKI     0048   58 62   CALM  /  1 1018.9R
SAPELO ISLAND    0000   57     130/  2     1018.0

$$

ANZ835-935-AMZ111-154-330-350-352-354-370-450-454-472-080200-
...C-MAN AND BUOY OBSERVATIONS...

STATION/POSITION TIME  TEMP    WIND        PRES    WAVE   SWELL
                       AIR SEA DIR/SP/G            HT/PER HT/PER/DIR
                 (UTC) (F)     (DEG/KT/KT) (MB)    (FT/S) (FT/S/D)
BUOY 41004       2350   63 74  290/  4/  6 1017.9    2/ 7   2/180/ 7
BUOY 41008       2350   63 65  130/  8/  8 1018.1    1/13   2/ 80/13
FOLLY BEACH CMAN 0000   54     280/  2/  2 1019.3R
CAPERS NEARSHORE 0008   57 61  270/  8/ 10 1018.6R
FRIPP NEARSHORE  0008   59 62   90/  6/  6 1018.3R


STATION/POSITION TIME  TEMP    WIND        PRES    WAVE   SWELL
                       AIR SEA DIR/SP/G            HT/PER HT/PER/DIR
                 (UTC) (F)     (DEG/KT/KT) (MB)    (FT/S) (FT/S/D)
5E ST. MARYS GA  0100      66                N/A     1/13
FRYING PAN BUOY  0050   61      70/  4/  6 1018.5R
BUOY 41025       2350   58 77   10/ 12/ 16 1018.5    7/11   7/ 50/11
CAPE LOOKOUT NC  0000   52      20/  7/  7 1018.3R
BUOY 41002       2350   70 74  330/ 10/ 14 1017.4    6/ 7   5/320/ 7
BUOY 41010       NOT AVBL
ST AUGUSTINE FL  0000   66 68  140/  3/  3 1019.3R


$$




USA.gov is the U.S. government's official web portal to all federal, state and local government web resources and services.